Weather History for PAWG - October, 2011

Change the Weather History Date:

Monday, October 10, 2011

  Actual Average Record
Temperature  
Mean Temperature 48 °F -  
Max Temperature 55 °F 50 °F 59 °F (2014)
Min Temperature 42 °F 39 °F 23 °F (1968)
Degree Days  
Heating Degree Days 16    
Moisture  
Dew Point 39 °F    
Average Humidity 76    
Maximum Humidity 87    
Minimum Humidity 51    
Precipitation  
Precipitation 0.00 in - - ()
Sea Level Pressure  
Sea Level Pressure 29.43 in    
Wind  
Wind Speed 7 mph (ESE)    
Max Wind Speed 12 mph    
Max Gust Speed -    
Visibility 10 miles    
Events      
Averages and records for this station are not official NWS values.
T = Trace of Precipitation, MM = Missing Value Source: NWS Daily Summary

Daily Weather History Graph

Daily Weather History Graph

Search for Another Location

Airport or City:

Trip Planner

Search our weather history database for the weather conditions in past years. The results will help you decide how hot, cold, wet, or windy it might be!

Date:

Astronomy

Oct. 10, 2011 Rise Set
Actual Time 7:11 AM AKDT 6:00 PM AKDT
Civil Twilight 6:33 AM AKDT 6:38 PM AKDT
Nautical Twilight 5:49 AM AKDT 7:21 PM AKDT
Astronomical Twilight 5:05 AM AKDT 8:06 PM AKDT
Moon 5:06 PM AKDT (10/10) 5:55 AM AKDT (10/10)
Length of Visible Light 12h 05m
Length of Day
10h 49m
Waxing Gibbous, 99% of the Moon is Illuminated
Oct 10
Waxing Gibbous
Oct 11
Full
Oct 19
Last Quarter
Oct 26
New
Nov 2
First Quarter

Hourly Weather History & Observations

Time (AKDT) Temp. Windchill Dew Point Humidity Pressure Visibility Wind Dir Wind Speed Gust Speed Precip Events Conditions
12:16 AM 44.6 °F 40.7 °F 41.0 °F 87% 29.67 in 10.0 mi East 6.9 mph - N/A   Mostly Cloudy
12:36 AM 44.6 °F 41.4 °F 41.0 °F 87% 29.66 in 10.0 mi East 5.8 mph - N/A   Overcast
12:56 AM 44.6 °F 40.2 °F 41.0 °F 87% 29.66 in 10.0 mi ESE 8.1 mph - N/A   Overcast
1:16 AM 44.6 °F 42.2 °F 39.2 °F 81% 29.65 in 10.0 mi SE 4.6 mph - N/A   Mostly Cloudy
1:36 AM 44.6 °F - 39.2 °F 81% 29.65 in 10.0 mi Calm Calm - N/A   Mostly Cloudy
1:56 AM 44.6 °F 40.7 °F 39.2 °F 81% 29.63 in 10.0 mi ESE 6.9 mph - N/A   Overcast
2:16 AM 44.6 °F 38.8 °F 39.2 °F 81% 29.62 in 10.0 mi ESE 11.5 mph - N/A   Overcast
2:36 AM 44.6 °F 39.7 °F 39.2 °F 81% 29.61 in 10.0 mi ESE 9.2 mph - N/A   Overcast
2:56 AM 44.6 °F 40.7 °F 39.2 °F 81% 29.60 in 10.0 mi SE 6.9 mph - N/A   Overcast
3:16 AM 44.6 °F 41.4 °F 39.2 °F 81% 29.60 in 10.0 mi East 5.8 mph - N/A   Overcast
3:36 AM 44.6 °F 40.7 °F 39.2 °F 81% 29.59 in 10.0 mi East 6.9 mph - N/A   Overcast
3:56 AM 44.6 °F 41.4 °F 39.2 °F 81% 29.58 in 10.0 mi SE 5.8 mph - N/A   Overcast
4:16 AM 44.6 °F 41.4 °F 39.2 °F 81% 29.57 in 10.0 mi ESE 5.8 mph - N/A   Overcast
4:36 AM 44.6 °F 40.7 °F 39.2 °F 81% 29.56 in 10.0 mi ESE 6.9 mph - N/A   Overcast
4:56 AM 44.6 °F 40.7 °F 39.2 °F 81% 29.56 in 10.0 mi East 6.9 mph - N/A   Overcast
5:16 AM 44.6 °F 41.4 °F 39.2 °F 81% 29.54 in 10.0 mi East 5.8 mph - N/A   Overcast
5:36 AM 44.6 °F 41.4 °F 39.2 °F 81% 29.54 in 10.0 mi SE 5.8 mph - N/A   Overcast
5:56 AM 42.8 °F 37.5 °F 39.2 °F 87% 29.52 in 10.0 mi SE 9.2 mph - N/A   Mostly Cloudy
6:16 AM 42.8 °F 39.3 °F 39.2 °F 87% 29.51 in 10.0 mi ESE 5.8 mph - N/A   Mostly Cloudy
6:36 AM 42.8 °F 39.3 °F 39.2 °F 87% 29.50 in 10.0 mi ESE 5.8 mph - N/A   Mostly Cloudy
6:56 AM 42.8 °F 38.6 °F 39.2 °F 87% 29.50 in 10.0 mi SE 6.9 mph - N/A   Mostly Cloudy
7:16 AM 42.8 °F 38.6 °F 39.2 °F 87% 29.49 in 10.0 mi SE 6.9 mph - N/A   Mostly Cloudy
7:36 AM 42.8 °F 37.5 °F 39.2 °F 87% 29.48 in 10.0 mi SE 9.2 mph - N/A   Mostly Cloudy
7:56 AM 42.8 °F 37.5 °F 39.2 °F 87% 29.48 in 10.0 mi SE 9.2 mph - N/A   Mostly Cloudy
8:16 AM 42.8 °F 36.6 °F 39.2 °F 87% 29.47 in 10.0 mi SE 11.5 mph - N/A   Mostly Cloudy
8:36 AM 42.8 °F 37.0 °F 39.2 °F 87% 29.46 in 10.0 mi SE 10.4 mph - N/A   Mostly Cloudy
8:56 AM 42.8 °F 37.0 °F 39.2 °F 87% 29.46 in 10.0 mi SE 10.4 mph - N/A   Mostly Cloudy
9:16 AM 44.6 °F 39.7 °F 39.2 °F 81% 29.45 in 10.0 mi SE 9.2 mph - N/A   Mostly Cloudy
9:36 AM 44.6 °F 39.7 °F 41.0 °F 87% 29.44 in 10.0 mi SE 9.2 mph - N/A   Mostly Cloudy
9:56 AM 44.6 °F 40.7 °F 41.0 °F 87% 29.43 in 10.0 mi ESE 6.9 mph - N/A   Mostly Cloudy
10:16 AM 44.6 °F 40.7 °F 41.0 °F 87% 29.43 in 10.0 mi ESE 6.9 mph - N/A   Mostly Cloudy
10:36 AM 44.6 °F 39.7 °F 41.0 °F 87% 29.42 in 10.0 mi SE 9.2 mph - N/A   Mostly Cloudy
10:56 AM 44.6 °F 39.2 °F 41.0 °F 87% 29.40 in 10.0 mi SE 10.4 mph - N/A   Mostly Cloudy
11:16 AM 46.4 °F 43.5 °F 41.0 °F 81% 29.40 in 10.0 mi SSE 5.8 mph - N/A   Mostly Cloudy
11:36 AM 46.4 °F 42.9 °F 42.8 °F 87% 29.38 in 10.0 mi ESE 6.9 mph - N/A   Mostly Cloudy
11:56 AM 48.2 °F - 42.8 °F 82% 29.37 in 10.0 mi ESE 5.8 mph - N/A   Overcast
12:16 PM 48.2 °F - 41.0 °F 76% 29.37 in 10.0 mi ESE 10.4 mph - N/A   Overcast
12:36 PM 48.2 °F - 42.8 °F 82% 29.36 in 10.0 mi SE 8.1 mph - N/A   Overcast
12:56 PM 48.2 °F - 42.8 °F 82% 29.35 in 10.0 mi ESE 4.6 mph - N/A   Overcast
1:16 PM 51.8 °F - 41.0 °F 67% 29.34 in 10.0 mi Calm Calm - N/A   Overcast
1:36 PM 53.6 °F - 39.2 °F 58% 29.33 in 10.0 mi ENE 6.9 mph - N/A   Overcast
1:56 PM 51.8 °F - 39.2 °F 62% 29.32 in 10.0 mi NE 3.5 mph - N/A   Mostly Cloudy
2:16 PM 53.6 °F - 37.4 °F 54% 29.31 in 10.0 mi SE 5.8 mph - N/A   Mostly Cloudy
2:36 PM 53.6 °F - 39.2 °F 58% 29.30 in 10.0 mi East 5.8 mph - N/A   Mostly Cloudy
2:56 PM 55.4 °F - 37.4 °F 51% 29.30 in 10.0 mi ESE 5.8 mph - N/A   Mostly Cloudy
3:16 PM 51.8 °F - 41.0 °F 67% 29.29 in 10.0 mi SE 5.8 mph - N/A   Mostly Cloudy
3:36 PM 51.8 °F - 39.2 °F 62% 29.28 in 10.0 mi ESE 4.6 mph - N/A   Mostly Cloudy
3:56 PM 51.8 °F - 39.2 °F 62% 29.27 in 10.0 mi SE 5.8 mph - N/A   Mostly Cloudy
4:16 PM 53.6 °F - 37.4 °F 54% 29.27 in 10.0 mi ESE 5.8 mph - N/A   Mostly Cloudy
4:36 PM 53.6 °F - 37.4 °F 54% 29.26 in 10.0 mi SE 6.9 mph - N/A   Mostly Cloudy
4:56 PM 51.8 °F - 37.4 °F 58% 29.25 in 10.0 mi ESE 5.8 mph - N/A   Scattered Clouds
5:16 PM 50.0 °F - 37.4 °F 62% 29.25 in 10.0 mi SE 6.9 mph - N/A   Scattered Clouds
5:36 PM 50.0 °F - 35.6 °F 58% 29.25 in 10.0 mi SSE 6.9 mph - N/A   Scattered Clouds
5:56 PM 48.2 °F - 35.6 °F 62% 29.25 in 10.0 mi SE 5.8 mph - N/A   Scattered Clouds
6:16 PM 48.2 °F - 35.6 °F 62% 29.24 in 10.0 mi SSE 6.9 mph - N/A   Scattered Clouds
6:36 PM 48.2 °F - 35.6 °F 62% 29.25 in 10.0 mi SSE 5.8 mph - N/A   Scattered Clouds
6:56 PM 48.2 °F - 35.6 °F 62% 29.25 in 10.0 mi SE 5.8 mph - N/A   Scattered Clouds
7:16 PM 48.2 °F - 37.4 °F 66% 29.24 in 10.0 mi ESE 5.8 mph - N/A   Scattered Clouds
7:36 PM 46.4 °F 42.4 °F 37.4 °F 71% 29.24 in 10.0 mi ESE 8.1 mph - N/A   Scattered Clouds
7:56 PM 44.6 °F 40.7 °F 39.2 °F 81% 29.24 in 10.0 mi SE 6.9 mph - N/A   Scattered Clouds
8:16 PM 44.6 °F 40.2 °F 41.0 °F 87% 29.24 in 10.0 mi SE 8.1 mph - N/A   Scattered Clouds
8:36 PM 44.6 °F 40.7 °F 39.2 °F 81% 29.23 in 10.0 mi SE 6.9 mph - N/A   Scattered Clouds
8:56 PM 44.6 °F 40.2 °F 41.0 °F 87% 29.23 in 10.0 mi SE 8.1 mph - N/A   Scattered Clouds
9:16 PM 44.6 °F 40.7 °F 39.2 °F 81% 29.24 in 10.0 mi SE 6.9 mph - N/A   Scattered Clouds
9:36 PM 46.4 °F 41.9 °F 39.2 °F 76% 29.24 in 10.0 mi SE 9.2 mph - N/A   Scattered Clouds
9:56 PM 46.4 °F 41.9 °F 42.8 °F 87% 29.24 in 10.0 mi SE 9.2 mph - N/A   Scattered Clouds
10:16 PM 46.4 °F 42.9 °F 42.8 °F 87% 29.24 in 10.0 mi SE 6.9 mph - N/A   Scattered Clouds
10:36 PM 46.4 °F 44.3 °F 41.0 °F 81% 29.24 in 10.0 mi South 4.6 mph - N/A   Scattered Clouds
10:56 PM 46.4 °F 44.3 °F 39.2 °F 76% 29.24 in 10.0 mi North 4.6 mph - N/A   Scattered Clouds
11:16 PM 46.4 °F - 41.0 °F 81% 29.25 in 10.0 mi Calm Calm - N/A   Overcast
11:36 PM 46.4 °F 45.2 °F 39.2 °F 76% 29.25 in 10.0 mi SE 3.5 mph - N/A   Overcast
11:56 PM 44.6 °F 40.7 °F 41.0 °F 87% 29.25 in 10.0 mi SE 6.9 mph - N/A   Mostly Cloudy